| time (UTC) | temp F | wind direction | speed MPH | gust MPH | rain 1hr in | rain 24hr in | rain mn in | humidity % | barometer mb |
| 20260504050632 | 74 | 249 | 0.0 | 1.0 | 0.00 | 0.00 | 0.00 | 28 | 1010.1 |
| 20260504045651 | 74 | 204 | 2.0 | 2.0 | 0.00 | 0.00 | 0.00 | 28 | 1010.3 |
| 20260504044626 | 74 | 228 | 2.0 | 3.0 | 0.00 | 0.00 | 0.00 | 29 | 1010.1 |
| 20260504043706 | 73 | 211 | 2.0 | 3.0 | 0.00 | 0.00 | 0.00 | 30 | 1010.0 |
| 20260504042622 | 73 | 227 | 2.0 | 3.0 | 0.00 | 0.00 | 0.00 | 32 | 1010.1 |
| 20260504041626 | 71 | 230 | 2.0 | 3.0 | 0.00 | 0.00 | 0.00 | 36 | 1010.0 |
| 20260504040640 | 71 | 220 | 1.0 | 2.0 | 0.00 | 0.00 | 0.00 | 37 | 1009.8 |
| 20260504035639 | 73 | 214 | 1.0 | 2.0 | 0.00 | 0.00 | 0.00 | 38 | 1010.0 |
| 20260504034637 | 74 | 239 | 1.0 | 2.0 | 0.00 | 0.00 | 0.00 | 35 | 1009.8 |
| 20260504033633 | 74 | 222 | 0.0 | 2.0 | 0.00 | 0.00 | 0.00 | 35 | 1009.9 |
| 20260504032632 | 75 | 253 | 1.0 | 2.0 | 0.00 | 0.00 | 0.00 | 34 | 1009.8 |
| 20260504031632 | 77 | 242 | 2.0 | 2.0 | 0.00 | 0.00 | 0.00 | 31 | 1009.9 |
| 20260504030703 | 78 | 0.0 | 0.0 | 0.00 | 0.00 | 0.00 | 26 | 1009.8 | |
| 20260504025622 | 79 | 0.0 | 1.0 | 0.00 | 0.00 | 0.00 | 25 | 1009.8 | |
| 20260504024621 | 80 | 58 | 2.0 | 2.0 | 0.00 | 0.00 | 0.00 | 24 | 1009.8 |
| 20260504023637 | 81 | 109 | 1.0 | 2.0 | 0.00 | 0.00 | 0.00 | 24 | 1009.8 |
| 20260504022633 | 82 | 63 | 3.0 | 4.0 | 0.00 | 0.00 | 0.00 | 23 | 1010.0 |
| 20260504021656 | 82 | 76 | 3.0 | 3.0 | 0.00 | 0.00 | 0.00 | 22 | 1009.9 |
| 20260504020649 | 83 | 68 | 3.0 | 5.0 | 0.00 | 0.00 | 0.00 | 22 | 1009.9 |
| 20260504015630 | 83 | 38 | 3.0 | 6.0 | 0.00 | 0.00 | 0.00 | 22 | 1010.0 |
| 20260504014625 | 83 | 68 | 2.0 | 2.0 | 0.00 | 0.00 | 0.00 | 21 | 1010.1 |
| 20260504013625 | 84 | 111 | 2.0 | 2.0 | 0.00 | 0.00 | 0.00 | 21 | 1010.3 |
| 20260504012620 | 84 | 118 | 3.0 | 5.0 | 0.00 | 0.00 | 0.00 | 21 | 1010.3 |
| 20260504011622 | 84 | 111 | 2.0 | 3.0 | 0.00 | 0.00 | 0.00 | 20 | 1010.6 |
| 20260504010639 | 84 | 59 | 3.0 | 3.0 | 0.00 | 0.00 | 0.00 | 21 | 1010.7 |
| 20260504005638 | 84 | 38 | 3.0 | 5.0 | 0.00 | 0.00 | 0.00 | 21 | 1010.8 |
| 20260504004632 | 84 | 54 | 6.0 | 9.0 | 0.00 | 0.00 | 0.00 | 21 | 1010.8 |
| 20260504003649 | 84 | 90 | 5.0 | 5.0 | 0.00 | 0.00 | 0.00 | 20 | 1011.2 |
| 20260504002627 | 84 | 71 | 6.0 | 10.0 | 0.00 | 0.00 | 0.00 | 20 | 1011.2 |
| 20260504001627 | 84 | 117 | 2.0 | 2.0 | 0.00 | 0.00 | 0.00 | 21 | 1011.3 |
| 20260504000622 | 84 | 22 | 4.0 | 6.0 | 0.00 | 0.00 | 0.00 | 21 | 1011.4 |
| 20260503235623 | 84 | 46 | 7.0 | 10.0 | 0.00 | 0.00 | 0.00 | 19 | 1011.3 |
| 20260503234623 | 85 | 51 | 8.0 | 11.0 | 0.00 | 0.00 | 0.00 | 20 | 1011.5 |
| 20260503233637 | 84 | 2 | 4.0 | 6.0 | 0.00 | 0.00 | 0.00 | 21 | 1011.6 |
| 20260503232633 | 84 | 49 | 6.0 | 10.0 | 0.00 | 0.00 | 0.00 | 21 | 1011.8 |
| 20260503231714 | 84 | 15 | 5.0 | 7.0 | 0.00 | 0.00 | 0.00 | 21 | 1012.0 |
| 20260503230632 | 83 | 1 | 2.0 | 3.0 | 0.00 | 0.00 | 0.00 | 21 | 1012.0 |
| 20260503225630 | 84 | 23 | 6.0 | 9.0 | 0.00 | 0.00 | 0.00 | 23 | 1012.2 |
| 20260503224625 | 85 | 66 | 7.0 | 10.0 | 0.00 | 0.00 | 0.00 | 22 | 1012.3 |
| 20260503223625 | 84 | 7 | 5.0 | 9.0 | 0.00 | 0.00 | 0.00 | 23 | 1012.5 |
| 20260503222641 | 82 | 98 | 2.0 | 4.0 | 0.00 | 0.00 | 0.00 | 24 | 1012.7 |
| 20260503221641 | 85 | 43 | 7.0 | 10.0 | 0.00 | 0.00 | 0.00 | 22 | 1012.6 |
| 20260503220636 | 83 | 81 | 4.0 | 5.0 | 0.00 | 0.00 | 0.00 | 22 | 1012.9 |
| 20260503215654 | 84 | 19 | 7.0 | 11.0 | 0.00 | 0.00 | 0.00 | 23 | 1012.9 |
| 20260503214634 | 84 | 110 | 4.0 | 6.0 | 0.00 | 0.00 | 0.00 | 20 | 1013.2 |
| 20260503213630 | 83 | 87 | 3.0 | 4.0 | 0.00 | 0.00 | 0.00 | 21 | 1013.4 |
| 20260503212630 | 83 | 42 | 5.0 | 7.0 | 0.00 | 0.00 | 0.00 | 21 | 1013.5 |
| 20260503211628 | 83 | 15 | 1.0 | 4.0 | 0.00 | 0.00 | 0.00 | 23 | 1013.6 |
| 20260503210643 | 84 | 23 | 5.0 | 9.0 | 0.00 | 0.00 | 0.00 | 22 | 1013.7 |
| 20260503205623 | 82 | 15 | 8.0 | 11.0 | 0.00 | 0.00 | 0.00 | 24 | 1013.8 |
| 20260503204621 | 82 | 124 | 4.0 | 4.0 | 0.00 | 0.00 | 0.00 | 25 | 1014.0 |
| 20260503203641 | 82 | 33 | 2.0 | 5.0 | 0.00 | 0.00 | 0.00 | 26 | 1014.0 |
| 20260503202654 | 80 | 259 | 3.0 | 4.0 | 0.00 | 0.00 | 0.00 | 28 | 1013.9 |
| 20260503201631 | 80 | 359 | 1.0 | 2.0 | 0.00 | 0.00 | 0.00 | 28 | 1014.1 |
| 20260503200635 | 81 | 56 | 3.0 | 6.0 | 0.00 | 0.00 | 0.00 | 26 | 1014.2 |
| 20260503195632 | 78 | 259 | 0.0 | 2.0 | 0.00 | 0.00 | 0.00 | 30 | 1014.4 |
| 20260503194625 | 80 | 77 | 3.0 | 6.0 | 0.00 | 0.00 | 0.00 | 28 | 1014.5 |
| 20260503193626 | 79 | 13 | 3.0 | 5.0 | 0.00 | 0.00 | 0.00 | 30 | 1014.9 |
| 20260503192623 | 79 | 87 | 3.0 | 4.0 | 0.00 | 0.00 | 0.00 | 29 | 1014.9 |
| 20260503191640 | 79 | 230 | 1.0 | 4.0 | 0.00 | 0.00 | 0.00 | 32 | 1015.0 |
| 20260503190636 | 78 | 52 | 3.0 | 4.0 | 0.00 | 0.00 | 0.00 | 30 | 1015.0 |
| 20260503185654 | 77 | 49 | 3.0 | 7.0 | 0.00 | 0.00 | 0.00 | 33 | 1015.1 |
| 20260503184635 | 78 | 22 | 7.0 | 9.0 | 0.00 | 0.00 | 0.00 | 31 | 1015.2 |
| 20260503183649 | 77 | 61 | 4.0 | 6.0 | 0.00 | 0.00 | 0.00 | 32 | 1015.3 |
| 20260503182628 | 75 | 357 | 4.0 | 6.0 | 0.00 | 0.00 | 0.00 | 32 | 1015.4 |
| 20260503181624 | 75 | 23 | 5.0 | 6.0 | 0.00 | 0.00 | 0.00 | 34 | 1015.5 |
| 20260503180625 | 75 | 55 | 5.0 | 8.0 | 0.00 | 0.00 | 0.00 | 33 | 1015.6 |
| 20260503175640 | 74 | 66 | 3.0 | 3.0 | 0.00 | 0.00 | 0.00 | 35 | 1015.7 |
| 20260503174619 | 74 | 12 | 5.0 | 7.0 | 0.00 | 0.00 | 0.00 | 34 | 1015.7 |
| 20260503173659 | 73 | 28 | 6.0 | 9.0 | 0.00 | 0.00 | 0.00 | 37 | 1016.0 |
| 20260503172633 | 73 | 27 | 7.0 | 9.0 | 0.00 | 0.00 | 0.00 | 37 | 1016.0 |
| 20260503171655 | 71 | 12 | 6.0 | 9.0 | 0.00 | 0.00 | 0.00 | 40 | 1016.0 |
| 20260503170631 | 71 | 21 | 9.0 | 11.0 | 0.00 | 0.00 | 0.00 | 39 | 1015.9 |
| 20260503150621 | 65 | 97 | 1.0 | 2.0 | 0.00 | 0.00 | 0.00 | 45 | 1016.1 |
| 20260503130635 | 58 | 222 | 1.0 | 2.0 | 0.00 | 0.00 | 0.00 | 54 | 1015.6 |
| 20260503120133 | 60 | 252 | 2.0 | 2.0 | 0.00 | 0.00 | 0.00 | 52 | 1015.4 |
| 20260503110124 | 61 | 0.0 | 1.0 | 0.00 | 0.00 | 0.00 | 48 | 1015.6 | |
| 20260503100128 | 67 | 281 | 2.0 | 2.0 | 0.00 | 0.00 | 0.00 | 37 | 1015.3 |
| 20260503090153 | 67 | 260 | 1.0 | 2.0 | 0.00 | 0.00 | 0.00 | 40 | 1015.3 |
| 20260503081142 | 68 | 301 | 4.0 | 5.0 | 0.00 | 0.00 | 0.00 | 38 | 1015.0 |
| 20260503080119 | 69 | 293 | 2.0 | 4.0 | 0.00 | 0.00 | 0.00 | 36 | 1015.1 |
| 20260503072133 | 69 | 299 | 4.0 | 4.0 | 0.00 | 0.00 | 0.00 | 36 | 1014.9 |
| 20260503071130 | 67 | 312 | 4.0 | 4.0 | 0.00 | 0.00 | 0.00 | 39 | 1014.7 |
| 20260503070126 | 67 | 321 | 5.0 | 6.0 | 0.00 | 0.00 | 0.00 | 41 | 1014.8 |
| 20260503060132 | 69 | 295 | 4.0 | 5.0 | 0.00 | 0.00 | 0.00 | 40 | 1014.4 |
| 20260503054151 | 69 | 246 | 1.0 | 3.0 | 0.00 | 0.00 | 0.00 | 39 | 1014.4 |